{"data":{"norad_id":69238,"intl_designator":"2026-117A","name":"STARLINK-37665","alt_names":[],"object_type":"PAYLOAD","status":"ACTIVE","operator":null,"country":"US","launch_date":"2026-05-29","launch_site_code":"AFETR","launch_vehicle":null,"mission":null,"orbit_class":"UNKNOWN","rcs_meters":null,"size_class":null,"mass_kg":null,"dimensions":null,"purposes":["comms"],"wikipedia_slug":null,"has_3d_model":false,"image_url":null,"decayed_at":null,"tle_current":{"epoch":"2026-09-19T10:43:16.188096Z","epoch_age_seconds":118029,"freshness":"FRESH","line1":"1 69238U 26117A   26262.44671514  .00007661  00000+0  23769-3 0  9994","line2":"2 69238  53.1573 158.7956 0000916  67.1458 292.9641 15.34393285 17501","mean_motion":15.34393285,"eccentricity":9.16e-5,"inclination_deg":53.1573,"raan_deg":158.7956,"arg_perigee_deg":67.1458,"mean_anomaly_deg":292.9641,"bstar":0.00023769,"rev_number":1750,"period_min":93.848168789399,"perigee_km":462.09657588082,"apogee_km":463.34982146921,"semimajor_km":6840.860198675,"source":"CELESTRAK","updated_at":"2026-09-20T09:00:44.147107Z"}}}